This is the latest recevied weather packets stored in our database for station/object LU3HGB-WX. If no packets are shown the sender has not sent any weather packets the latest 10 day(s).
| Time | Temp. | Humidity | Pressure | Rain* | Wind** | Luminosity | Snow |
|---|---|---|---|---|---|---|---|
| 1777395759 | 16.67° C | 52% | 1017 hPa | 0 mm | - | 704 W/m² | - |
| 1777395460 | 16.67° C | 49% | 1017 hPa | 0 mm | - | 710 W/m² | - |
| 1777395160 | 16.67° C | 50% | 1018 hPa | 0 mm | - | 711 W/m² | - |
| 1777394860 | 16.11° C | 51% | 1018 hPa | 0 mm | - | 714 W/m² | - |
| 1777394559 | 16.67° C | 48% | 1018 hPa | 0 mm | - | 717 W/m² | - |
| 1777394261 | 16.67° C | 53% | 1018 hPa | 0 mm | - | 718 W/m² | - |
| 1777393959 | 16.11° C | 50% | 1018 hPa | 0 mm | - | 719 W/m² | - |
| 1777393659 | 16.11° C | 49% | 1018 hPa | 0 mm | - | 722 W/m² | - |
| 1777393359 | 16.11° C | 50% | 1018 hPa | 0 mm | - | 719 W/m² | - |
| 1777393059 | 16.11° C | 52% | 1018 hPa | 0 mm | - | 718 W/m² | - |
| 1777392760 | 16.11° C | 50% | 1018 hPa | 0 mm | - | 718 W/m² | - |
| 1777392460 | 15.56° C | 49% | 1018 hPa | 0 mm | - | 716 W/m² | - |
| 1777392160 | 15.56° C | 51% | 1019 hPa | 0 mm | - | 715 W/m² | - |
| 1777391860 | 15.56° C | 51% | 1019 hPa | 0 mm | - | 713 W/m² | - |
| 1777391560 | 15.56° C | 49% | 1019 hPa | 0 mm | - | 709 W/m² | - |
| 1777391260 | 15.56° C | 50% | 1019 hPa | 0 mm | - | 705 W/m² | - |
| 1777390960 | 15° C | 53% | 1019 hPa | 0 mm | - | 702 W/m² | - |
| 1777390660 | 15° C | 53% | 1019 hPa | 0 mm | - | 697 W/m² | - |
| 1777390085 | 15° C | 53% | 1019 hPa | 0 mm | - | 686 W/m² | - |
| 1777389759 | 15° C | 53% | 1019 hPa | 0 mm | - | 680 W/m² | - |
| 1777389460 | 15° C | 54% | 1019 hPa | 0 mm | - | 672 W/m² | - |
| 1777389161 | 15° C | 56% | 1019 hPa | 0 mm | - | 665 W/m² | - |
| 1777388860 | 14.44° C | 52% | 1019 hPa | 0 mm | - | 657 W/m² | - |
| 1777388560 | 14.44° C | 54% | 1019 hPa | 0 mm | - | 646 W/m² | - |
| 1777388260 | 14.44° C | 51% | 1019 hPa | 0 mm | - | 640 W/m² | - |
* Rain latest hour (hover to see other rain measurements)
** Current wind speed in m/s (hover to see current wind gust speed)